Regional Weather Roundup
Issued by NWS

Home | Current Version | Previous Version | Text Only | Print | Product List | Glossary Off
Versions: 1 2 3 4 5 6 7 8 9 10 11 12 13 14 15 16 17 18 19 20 21 22 23 24 25 26 27 28 29 30 31 32 33 34 35 36 37 38 39 40 41 42 43 44 45 46 47 48 49 50

000
ASUS45 KSLC 212010
RWRUT

UTAH REGIONAL WEATHER ROUNDUP
NATIONAL WEATHER SERVICE SALT LAKE CITY UT
200 PM MDT MON JUL 21 2014

UTZ001>011-023>025-212100-

NORTHERN UTAH

CITY           SKY/WX    TMP DP  RH WIND       PRES   REMARKS
HILL AFB       SUNNY     87  37  16 VRB5      30.12F
LOGAN          NOT AVBL
OGDEN          SUNNY     91  35  13 VRB6      30.09F
PROVO AIRPORT  NOT AVBL
SALT LAKE CITY MOSUNNY   92  35  13 S10G23    30.06F
VERNAL         SUNNY     88  32  13 SW6       30.15F
WENDOVER       MOSUNNY   90  41  18 SE5       30.05F
HEBER CITY     SUNNY     88  32  13 SW18G24   30.19F
WEST JORDAN    SUNNY     93  50  22 SE17G25   30.09F HX  90

$$

UTZ012>022-026-027-212100-

SOUTHERN UTAH

CITY           SKY/WX    TMP DP  RH WIND       PRES   REMARKS
BRYCE CANYON   SUNNY     79  23  12 S10       30.39F
CEDAR CITY     SUNNY     87  25  10 SW20G29   30.23F
MILFORD        SUNNY     90  31  12 SW24G37   30.16F
MOAB/CYNLANDS  SUNNY     96  25   8 NW10      30.10F HX  90
PRICE          SUNNY     89  25  10 VRB5      30.21F
ST GEORGE      CLEAR     93  39  15 NW3       30.06F
KANAB            N/A     90  28  11 S17       30.23F

$$

REGIONAL REPORTS     COLORADO/ARIZONA

CITY           SKY/WX    TMP DP  RH WIND       PRES   REMARKS
CRAIG, CO      MOSUNNY   87  39  18 W15       30.22F
GRAND JUNCTION MOSUNNY   93  36  13 NW13G22   30.13F
RIFLE          MOSUNNY   92  34  13 W14G20    30.19F
MONTROSE       MOSUNNY   92  36  14 N9G16     30.22F
CORTEZ         SUNNY     91  34  13 S8        30.27F
PAGE, AZ       SUNNY     97  32  10 N8        30.13F HX  91
GRAND CANYON   SUNNY     83  31  15 W14G24    30.36F
KINGMAN        SUNNY     94  30  10 SW18G29   30.11F
FLAGSTAFF      SUNNY     80  35  19 SW17      30.39F

$$

REGIONAL REPORTS    NEVADA/IDAHO/WYOMING

CITY           SKY/WX    TMP DP  RH WIND       PRES   REMARKS
LAS VEGAS, NV  MOSUNNY   99  43  14 VRB7      29.94F HX  95
ELY            SUNNY     84  33  16 SW15G23   30.22F
ELKO           SUNNY     81  46  29 SW16      30.15F
POCATELLO, ID  MOSUNNY   86  49  27 W17       30.07F
BURLEY         MOSUNNY   83  53  35 W7G17     30.05F
EVANSTON, WY   MOSUNNY   78  36  21 SW12G26   30.29F
ROCK SPRINGS   SUNNY     86  32  14 W16G23    30.24F

$$



USA.gov is the U.S. government's official web portal to all federal, state and local government web resources and services.